Weather in Milogradovka

Russia / Omsk Oblast     54°05′37″N   73°40′16″E
temp.,
°C
wind,
m/s
gust,
m/s
humid.,
%
clouds,
%
prec.,
mm/h
press.,
hPa
HPBL,
m
6 may, thu
thu600:00+14s41245100 0.0 1006203
03:00+13sse41048100 0.0 1004141
06:00+13sse464988 0.0 100388
09:00+19s4637100 0.0 1002230
12:00+24wsw7929100 0.0 10021040
15:00+23wnw9103811 0.0 10041503
18:00+20wnw89252 0.0 10061654
21:00+16nw61136100 0.0 1009439
7 may, fri
fri700:00+13wnw41043100 0.0 1011303
03:00+11nw41150100 0.0 1013342
06:00+9wnw510554 0.0 1016331
09:00+12wnw79400 0.0 10181145
12:00+14wnw89300 0.0 10191395
15:00+17nw89231 0.0 10191499
18:00+18nw67230 0.0 10201392
21:00+14nw22340 0.0 102119
8 may, sat
sat800:00+12nw22381 0.0 102210
03:00+11w11421 0.0 102310
06:00+10ssw11435 0.0 102310
09:00+16s22315 0.0 1023357
12:00+19s3325100 0.0 10221297
15:00+21sse222172 0.0 10201704
18:00+22se3320100 0.0 10191947
21:00+18se2231100 0.0 101923
9 may, sun
sun900:00+16ese3737100 0.0 1018114
03:00+15e41040100 0.0 1017224
06:00+14ese4942100 0.0 1017213
09:00+18e6103177 0.0 1017797
12:00+22ese8925100 0.0 10151997
15:00+20se7932100 0.1 10151985
18:00+17e71046100 0.3 1015926
21:00+16e71256100 0.1 1015386
10 may, mon
mon1000:00+14e81272100 0.6 1016745
03:00+13e81482100 2.8 1015752
06:00+12e51381100 4.3 1016632
09:00+14ene61155100 0.1 1017728
12:00+16ene7940100 0.1 10171328
15:00+19ne7829100 0.0 10161889
18:00+19ne682754 0.0 10172187
21:00+15nne35390 0.0 101878